Location: Krasnoyarskiy Pitomnik
(51.1333°N, 71.6167°E)
Time: 10:32:12
(UTC+00:00)

Altair - Pass Details

Date: 20 April 2024
Orbit: 1501 x 1682 km, 47.2° (Epoch: 17 May)

Event Time Altitude Azimuth Distance (km) Brightness Sun altitude
Rises 21:48:52 0° 285° (WNW) 4,783 9.8 -18.4°
Enters shadow 21:53:29 - 266° (W) 3,813 9.2 -17.9°
Reaches altitude 10° 21:53:51 10° 264° (W) 3,755 - -17.9°
Maximum altitude 21:58:22 15° 235° (SW) 3,364 - -17.4°
Drops below altitude 10° 22:02:51 10° 205° (SSW) 3,687 - -16.9°
Sets 22:07:42 0° 183° (S) 4,640 - -16.4°
